sat.trackr.live / text

‹ back to catalog

STARLINK-33932

NORAD 63775 · 2025-091A

PAYLOAD ACTIVE UNKNOWN

§ Identity

Operator
Country
US
Launch date
2025-05-02
Launch site
AFETR
Launch vehicle
Mass (kg)
RCS (m²)

Purposes: comms

External: N2YO · Heavens-Above · Gunter

§ Orbital elements

Epoch: 2026-09-20T08:14:01.050144Z

Period
94.27 min
Inclination
43.0022°
Eccentricity
0.0001107
Mean motion
15.27589778 rev/d
Perigee alt
482.3 km
Apogee alt
483.8 km
Semi-major
6,861.2 km
B*
6.0971e-4
RAAN
33.0756°
Arg perigee
178.5735°
Mean anomaly
181.5121°
Rev number
7,871

§ Raw data

STARLINK-339321 63775U 25091A   26263.34306771  .00016558  00000+0  60971-3 0  99952 63775  43.0022  33.0756 0001107 178.5735 181.5121 15.27589778 78711

JSON: /api/v1/satellites/63775 · /tle

For live sub-satellite position, see the globe view (requires WebGL).

§ Visibility from observer

Set your observer location to see the next 7 days of passes ≥ 10°. The values pass through the URL so the page stays shareable.

No JS? Fill the form by hand. The geolocation button needs JavaScript.